Regional Weather Roundup
Issued by NWS Newport/Morehead, NC

Current Version | Previous Version | Text Only | Print | Product List | Glossary On
Versions: 1 2 3 4 5 6 7 8 9 10 11 12 13 14 15 16 17 18 19 20 21 22 23 24 25 26 27 28 29 30 31 32 33 34 35 36 37 38 39 40 41 42 43 44 45 46 47 48 49 50
000 ASUS42 KMHX 271013 RWRMHX WEATHER ROUNDUP FOR EASTERN NORTH CAROLINA NATIONAL WEATHER SERVICE NEWPORT/MOREHEAD CITY NC 600 AM EDT THU APR 27 2017 NOTE: "FAIR" INDICATES FEW OR NO CLOUDS BELOW 12,000 FEET WITH NO SIGNIFICANT WEATHER AND/OR OBSTRUCTIONS TO VISIBILITY NCZ015>017-031-032-045>047-102-103-271100- NORTH COAST CITY SKY/WX TMP DP RH WIND PRES REMARKS EDENTON PTCLDY 67 62 82 CALM 29.90R ELIZABETH CITY MOCLDY 66 63 90 SW8 29.89R KITTY HAWK MOSUNNY 67 66 96 CALM 29.89R MANTEO CLEAR 66 64 91 SW9 29.91R $$ NCZ045>047-081-094-103-104-271100- CENTRAL COAST CITY SKY/WX TMP DP RH WIND PRES REMARKS FRISCO CLEAR 70 64 81 SW8 29.92R HAZE $$ NCZ095-097-098-100-101-271100- SOUTHERN COAST CITY SKY/WX TMP DP RH WIND PRES REMARKS BEAUFORT CLEAR 69 68 96 SW3 29.91R CEDAR ISLAND NOT AVBL JACKSONVILLE PTCLDY 61 61 100 S3 29.91R PINEY ISLAND SUNNY N/A N/A N/A SW5 29.92R WILMINGTON CLEAR 62 61 96 CALM 29.90R $$ NCZ011>013-027>030-043-044-078>080-089-090>093-098-271100- COASTAL PLAIN CITY SKY/WX TMP DP RH WIND PRES REMARKS AHOSKIE N/A 64 60 88 CALM 29.88R CLINTON CLEAR 60 60 100 CALM 29.90S ELIZABETHTOWN CLEAR 60 59 99 CALM 29.88F GOLDSBORO CLEAR 63 63 99 S3 29.88R GREENVILLE CLEAR 64 61 88 SW6 29.93R HAVELOCK NOT AVBL KENANSVILLE CLEAR 57 57 100 CALM 29.90R FOG KINSTON CLEAR 61 59 93 CALM 29.91R NEW BERN CLEAR 63 61 93 S3 29.92R RICHLANDS CLEAR 60 59 96 S3 29.91R ROCKY MOUNT CLEAR 64 60 87 S6 29.88R WASHINGTON PTCLDY 64 60 87 SW5 29.91R WHITEVILLE CLEAR 57 56 95 CALM 29.88F $$ AMZ130-135-150-152-154-156-158-170-250-252-270-ANZ085-086-088-633-658-670-271100- MARINE OBSERVATIONS STATION/POSITION TIME TEMP WIND PRES WAVE SWELL AIR SEA DIR/SP/G HT/PER HT/PER (UTC) (F) (DEG/KT/KT) (MB) (FT/S) (FT/S) CHESAPEAKE LIGHT NOT AVBL 64 E VA BEACH 0950 59 55 220/ 10/ 12 1012.2 5/ 9 5/ 9 DUCK 0948 69 59 220/ 12/ 16 1011.7 2 E DUCK 1000 61 N/A 4/11 2/11 OREGON INLET 0948 210/ 13/ 15 N/A 13E OREGON INLT 0948 60 N/A 5/ 9 5/ 9 HATTERAS CG 0948 70 69 230/ 7/ 9 1012.8 DIAMOND BUOY 0950 75 77 230/ 16/ 17 1012.9 6/ 8 3/ 8 CAPE LOOKOUT 1000 69 240/ 5/ 6 1012.8 BEAUFORT LAB 0948 69 68 230/ 1/ 3 1012.1 30 SE NEW RVR IN 0908 70 240/ 6/ 8 1012.6 30 SE NEW RVR IN 0943 71 N/A 5/ 9 2/11 27 SE WRIGHTSVLE 0908 71 72 210/ 6/ 8 1011.1 5 SE WRIGHTSVLE 0908 70 70 220/ 4/ 6 1012.3 225 S CAPE HAT 0950 74 74 170/ 12/ 14 1015.2 6/ 9 5/ 9 41 SE CHARLESTON 1000 73 73 220/ 12/ 14 1012.3 $$

USA.gov is the U.S. government's official web portal to all federal, state and local government web resources and services.